Wetterdaten: Woche 05.02.24 - 11.02.24 (KW6)
Datum Zeit Temp. I. Temp. A. Feuchte I. Feuchte A. Luftdruck Regen Wind Richtung Sonnenschein Solar Taupunkt Windchill Windböen
05.02.2024 00:00 20,9 °C 10,1 °C 52 % 92 % 1012,7 hPa 0,0 l/m² 24,0 km/h (4 Bft) SW 0,00 h 0 W/m² 8,8 °C 2,2 °C 33,3 km/h (5 Bft)
05.02.2024 01:00 21,0 °C 10,3 °C 51 % 90 % 1012,6 hPa 0,0 l/m² 24,6 km/h (4 Bft) SW 0,00 h 0 W/m² 8,7 °C 2,4 °C 33,8 km/h (5 Bft)
05.02.2024 02:00 21,0 °C 10,2 °C 51 % 91 % 1012,6 hPa 0,0 l/m² 26,7 km/h (4 Bft) SW 0,00 h 0 W/m² 8,8 °C 1,8 °C 35,9 km/h (5 Bft)
05.02.2024 03:00 20,9 °C 10,2 °C 51 % 91 % 1012,7 hPa 0,2 l/m² 24,3 km/h (4 Bft) SW 0,00 h 0 W/m² 8,8 °C 2,3 °C 34,4 km/h (5 Bft)
05.02.2024 04:00 20,9 °C 10,1 °C 51 % 92 % 1012,8 hPa 0,0 l/m² 23,4 km/h (4 Bft) SW 0,00 h 0 W/m² 8,8 °C 2,4 °C 33,5 km/h (5 Bft)
05.02.2024 05:00 20,8 °C 10,2 °C 51 % 92 % 1013,1 hPa 0,0 l/m² 24,1 km/h (4 Bft) SW 0,00 h 0 W/m² 8,9 °C 2,4 °C 33,8 km/h (5 Bft)
05.02.2024 06:00 20,8 °C 10,4 °C 51 % 91 % 1013,3 hPa 0,0 l/m² 26,0 km/h (4 Bft) SW 0,00 h 0 W/m² 8,9 °C 2,1 °C 36,6 km/h (5 Bft)
05.02.2024 07:00 20,9 °C 10,4 °C 51 % 90 % 1013,8 hPa 0,0 l/m² 25,0 km/h (4 Bft) SW 0,00 h 0 W/m² 8,8 °C 2,4 °C 34,7 km/h (5 Bft)
05.02.2024 08:00 20,8 °C 10,5 °C 51 % 88 % 1013,9 hPa 0,0 l/m² 31,0 km/h (5 Bft) SW 0,00 h 22 W/m² 8,7 °C 1,3 °C 41,5 km/h (6 Bft)
05.02.2024 09:00 20,8 °C 11,1 °C 51 % 84 % 1014,4 hPa 0,0 l/m² 31,5 km/h (5 Bft) W-SW 0,70 h 56 W/m² 8,5 °C 1,9 °C 41,9 km/h (6 Bft)
05.02.2024 10:00 20,8 °C 11,5 °C 51 % 80 % 1014,9 hPa 0,0 l/m² 31,0 km/h (5 Bft) W-SW 1,00 h 87 W/m² 8,1 °C 2,6 °C 40,5 km/h (6 Bft)
05.02.2024 11:00 20,8 °C 11,8 °C 51 % 76 % 1015,1 hPa 0,0 l/m² 30,7 km/h (5 Bft) W-SW 1,00 h 129 W/m² 7,7 °C 3,1 °C 40,2 km/h (6 Bft)
05.02.2024 12:00 20,8 °C 12,1 °C 51 % 75 % 1014,5 hPa 0,0 l/m² 32,9 km/h (5 Bft) W-SW 1,00 h 214 W/m² 7,7 °C 3,2 °C 42,5 km/h (6 Bft)
05.02.2024 13:00 20,8 °C 13,0 °C 51 % 72 % 1014,0 hPa 0,0 l/m² 36,3 km/h (5 Bft) W-SW 1,00 h 395 W/m² 8,0 °C 3,9 °C 46,6 km/h (6 Bft)
05.02.2024 14:00 20,8 °C 13,1 °C 50 % 71 % 1013,7 hPa 0,0 l/m² 31,8 km/h (5 Bft) W-SW 1,00 h 278 W/m² 7,8 °C 4,7 °C 41,1 km/h (6 Bft)
05.02.2024 15:00 20,9 °C 12,6 °C 50 % 72 % 1013,2 hPa 0,0 l/m² 22,0 km/h (4 Bft) SW 1,00 h 124 W/m² 7,7 °C 6,2 °C 28,9 km/h (5 Bft)
05.02.2024 16:00 20,9 °C 11,9 °C 50 % 74 % 1013,3 hPa 0,0 l/m² 18,8 km/h (3 Bft) SW 0,45 h 46 W/m² 7,5 °C 6,3 °C 24,8 km/h (4 Bft)
05.02.2024 17:00 20,9 °C 10,9 °C 50 % 78 % 1013,2 hPa 0,0 l/m² 19,0 km/h (3 Bft) SW 0,00 h 6 W/m² 7,3 °C 4,9 °C 24,5 km/h (4 Bft)
05.02.2024 18:00 20,9 °C 10,2 °C 50 % 81 % 1013,1 hPa 0,0 l/m² 17,5 km/h (3 Bft) SW 0,00 h 0 W/m² 7,0 °C 4,4 °C 22,1 km/h (4 Bft)
05.02.2024 19:00 20,9 °C 9,5 °C 50 % 82 % 1013,0 hPa 0,0 l/m² 13,7 km/h (3 Bft) W-SW 0,00 h 0 W/m² 6,6 °C 5,3 °C 18,0 km/h (3 Bft)
05.02.2024 20:00 20,8 °C 8,7 °C 50 % 84 % 1013,0 hPa 0,0 l/m² 10,8 km/h (2 Bft) SW 0,00 h 0 W/m² 6,1 °C 5,8 °C 14,8 km/h (3 Bft)
05.02.2024 21:00 20,9 °C 8,1 °C 50 % 85 % 1012,9 hPa 0,0 l/m² 3,7 km/h (1 Bft) W-SW 0,00 h 0 W/m² 5,7 °C 7,6 °C 5,5 km/h (2 Bft)
05.02.2024 22:00 20,9 °C 8,3 °C 50 % 84 % 1013,2 hPa 0,0 l/m² 3,3 km/h (1 Bft) W-SW 0,00 h 0 W/m² 5,9 °C 8,2 °C 5,0 km/h (1 Bft)
05.02.2024 23:00 20,9 °C 8,6 °C 50 % 84 % 1013,2 hPa 0,0 l/m² 11,6 km/h (2 Bft) S 0,00 h 0 W/m² 6,1 °C 5,2 °C 15,1 km/h (3 Bft)
06.02.2024 00:00 21,0 °C 9,0 °C 50 % 81 % 1013,2 hPa 0,0 l/m² 17,7 km/h (3 Bft) SW 0,00 h 0 W/m² 5,8 °C 2,9 °C 23,2 km/h (4 Bft)
06.02.2024 01:00 21,0 °C 8,7 °C 50 % 81 % 1013,0 hPa 0,0 l/m² 18,4 km/h (3 Bft) SW 0,00 h 0 W/m² 5,6 °C 2,2 °C 24,5 km/h (4 Bft)
06.02.2024 02:00 21,0 °C 8,3 °C 50 % 82 % 1012,7 hPa 0,0 l/m² 19,5 km/h (3 Bft) SW 0,00 h 0 W/m² 5,4 °C 1,4 °C 25,2 km/h (4 Bft)
06.02.2024 03:00 20,9 °C 8,4 °C 50 % 81 % 1012,0 hPa 0,0 l/m² 22,0 km/h (4 Bft) SW 0,00 h 0 W/m² 5,3 °C 0,6 °C 29,5 km/h (5 Bft)
06.02.2024 04:00 20,8 °C 8,4 °C 50 % 80 % 1011,4 hPa 0,0 l/m² 23,0 km/h (4 Bft) SW 0,00 h 0 W/m² 5,2 °C 0,3 °C 31,4 km/h (5 Bft)
06.02.2024 05:00 20,8 °C 8,3 °C 50 % 81 % 1011,1 hPa 0,0 l/m² 20,5 km/h (4 Bft) SW 0,00 h 0 W/m² 5,3 °C 1,0 °C 28,3 km/h (5 Bft)
06.02.2024 06:00 20,8 °C 8,2 °C 49 % 83 % 1010,6 hPa 0,0 l/m² 23,1 km/h (4 Bft) SW 0,00 h 0 W/m² 5,5 °C -0,0 °C 31,1 km/h (5 Bft)
06.02.2024 07:00 20,8 °C 8,4 °C 49 % 82 % 1010,2 hPa 0,0 l/m² 21,7 km/h (4 Bft) SW 0,00 h 5 W/m² 5,6 °C 0,7 °C 30,7 km/h (5 Bft)
06.02.2024 08:00 20,8 °C 8,8 °C 49 % 80 % 1009,9 hPa 0,0 l/m² 23,0 km/h (4 Bft) SW 0,07 h 28 W/m² 5,6 °C 0,8 °C 31,4 km/h (5 Bft)
06.02.2024 09:00 20,8 °C 9,2 °C 49 % 80 % 1009,8 hPa 0,0 l/m² 24,9 km/h (4 Bft) SW 1,00 h 87 W/m² 5,9 °C 0,9 °C 33,2 km/h (5 Bft)
06.02.2024 10:00 20,9 °C 9,5 °C 49 % 81 % 1009,7 hPa 0,0 l/m² 27,1 km/h (5 Bft) SW 1,00 h 192 W/m² 6,4 °C 0,8 °C 37,0 km/h (5 Bft)
06.02.2024 11:00 20,8 °C 10,0 °C 49 % 80 % 1009,5 hPa 0,0 l/m² 28,7 km/h (5 Bft) SW 1,00 h 257 W/m² 6,8 °C 1,1 °C 38,1 km/h (6 Bft)
06.02.2024 12:00 20,8 °C 10,0 °C 49 % 80 % 1009,0 hPa 0,0 l/m² 30,0 km/h (5 Bft) SW 1,00 h 154 W/m² 6,7 °C 0,7 °C 39,9 km/h (6 Bft)
06.02.2024 13:00 20,7 °C 10,1 °C 49 % 80 % 1008,7 hPa 0,0 l/m² 25,0 km/h (4 Bft) SW 1,00 h 139 W/m² 6,8 °C 2,0 °C 34,3 km/h (5 Bft)
06.02.2024 14:00 20,7 °C 10,0 °C 49 % 81 % 1007,9 hPa 0,0 l/m² 26,9 km/h (4 Bft) SW 1,00 h 120 W/m² 6,8 °C 1,4 °C 36,0 km/h (5 Bft)
06.02.2024 15:00 20,8 °C 10,2 °C 49 % 80 % 1007,2 hPa 0,0 l/m² 32,1 km/h (5 Bft) SW 0,87 h 92 W/m² 6,9 °C 0,6 °C 43,1 km/h (6 Bft)
06.02.2024 16:00 20,7 °C 10,2 °C 49 % 80 % 1006,7 hPa 0,0 l/m² 28,4 km/h (5 Bft) SW 0,13 h 24 W/m² 6,8 °C 1,3 °C 38,3 km/h (6 Bft)
06.02.2024 17:00 20,7 °C 9,7 °C 49 % 81 % 1006,2 hPa 0,0 l/m² 28,0 km/h (5 Bft) SW 0,00 h 6 W/m² 6,6 °C 0,8 °C 38,4 km/h (6 Bft)
06.02.2024 18:00 20,7 °C 9,7 °C 49 % 80 % 1005,8 hPa 0,0 l/m² 28,4 km/h (5 Bft) SW 0,00 h 0 W/m² 6,4 °C 0,6 °C 38,4 km/h (6 Bft)
06.02.2024 19:00 20,6 °C 9,6 °C 49 % 81 % 1004,9 hPa 0,0 l/m² 32,1 km/h (5 Bft) SW 0,00 h 0 W/m² 6,5 °C -0,3 °C 43,1 km/h (6 Bft)
06.02.2024 20:00 20,6 °C 9,7 °C 49 % 81 % 1004,6 hPa 0,0 l/m² 33,7 km/h (5 Bft) SW 0,00 h 0 W/m² 6,5 °C -0,5 °C 45,4 km/h (6 Bft)
06.02.2024 21:00 20,6 °C 9,8 °C 49 % 80 % 1004,4 hPa 0,0 l/m² 31,5 km/h (5 Bft) SW 0,00 h 0 W/m² 6,6 °C 0,2 °C 42,2 km/h (6 Bft)
06.02.2024 22:00 20,6 °C 10,0 °C 49 % 80 % 1003,8 hPa 0,0 l/m² 31,5 km/h (5 Bft) SW 0,00 h 0 W/m² 6,7 °C 0,4 °C 42,4 km/h (6 Bft)
06.02.2024 23:00 20,6 °C 10,1 °C 48 % 80 % 1003,1 hPa 0,0 l/m² 36,8 km/h (5 Bft) SW 0,00 h 0 W/m² 6,8 °C -0,5 °C 48,6 km/h (7 Bft)
07.02.2024 00:00 20,5 °C 10,2 °C 48 % 80 % 1002,6 hPa 0,0 l/m² 37,2 km/h (5 Bft) SW 0,00 h 0 W/m² 7,0 °C -0,3 °C 51,2 km/h (7 Bft)
07.02.2024 01:00 20,5 °C 10,1 °C 48 % 81 % 1001,9 hPa 0,0 l/m² 33,1 km/h (5 Bft) SW 0,00 h 0 W/m² 7,0 °C 0,3 °C 44,9 km/h (6 Bft)
07.02.2024 02:00 20,6 °C 10,4 °C 48 % 79 % 1001,3 hPa 0,0 l/m² 29,4 km/h (5 Bft) SW 0,00 h 0 W/m² 6,8 °C 1,4 °C 40,3 km/h (6 Bft)
07.02.2024 03:00 20,6 °C 10,1 °C 48 % 80 % 1000,4 hPa 0,0 l/m² 32,5 km/h (5 Bft) S-SW 0,00 h 0 W/m² 6,9 °C 0,3 °C 45,1 km/h (6 Bft)
07.02.2024 04:00 20,5 °C 9,6 °C 48 % 84 % 999,9 hPa 0,0 l/m² 30,3 km/h (5 Bft) SW 0,00 h 0 W/m² 7,0 °C 0,1 °C 41,2 km/h (6 Bft)
07.02.2024 05:00 20,4 °C 8,6 °C 48 % 86 % 1000,1 hPa 3,8 l/m² 21,5 km/h (4 Bft) NW 0,00 h 0 W/m² 6,3 °C 1,4 °C 31,9 km/h (5 Bft)
07.02.2024 06:00 20,6 °C 5,7 °C 49 % 90 % 1001,0 hPa 3,4 l/m² 10,2 km/h (2 Bft) W-NW 0,00 h 0 W/m² 4,2 °C 2,9 °C 17,4 km/h (3 Bft)
07.02.2024 07:00 20,6 °C 4,4 °C 49 % 90 % 1001,9 hPa 1,2 l/m² 14,1 km/h (3 Bft) NW 0,00 h 5 W/m² 2,9 °C -1,0 °C 22,2 km/h (4 Bft)
07.02.2024 08:00 20,6 °C 3,4 °C 49 % 90 % 1002,9 hPa 1,0 l/m² 13,2 km/h (3 Bft) W 0,00 h 14 W/m² 1,9 °C -1,7 °C 19,3 km/h (3 Bft)
07.02.2024 09:00 20,7 °C 3,1 °C 49 % 91 % 1003,4 hPa 0,6 l/m² 11,5 km/h (2 Bft) W-SW 0,00 h 27 W/m² 1,8 °C -0,9 °C 15,2 km/h (3 Bft)
07.02.2024 10:00 20,7 °C 3,7 °C 49 % 91 % 1003,7 hPa 0,0 l/m² 8,2 km/h (2 Bft) SW 0,08 h 45 W/m² 2,4 °C 2,1 °C 11,2 km/h (2 Bft)
07.02.2024 11:00 20,6 °C 4,2 °C 49 % 91 % 1004,1 hPa 0,0 l/m² 10,7 km/h (2 Bft) SW 0,48 h 50 W/m² 2,9 °C 0,9 °C 15,1 km/h (3 Bft)
07.02.2024 12:00 20,6 °C 4,6 °C 49 % 88 % 1004,3 hPa 0,0 l/m² 11,3 km/h (2 Bft) W 0,87 h 64 W/m² 2,9 °C 0,9 °C 16,7 km/h (3 Bft)
07.02.2024 13:00 20,7 °C 4,9 °C 48 % 84 % 1004,6 hPa 0,0 l/m² 12,9 km/h (3 Bft) W 1,00 h 87 W/m² 2,5 °C 0,2 °C 18,1 km/h (3 Bft)
07.02.2024 14:00 20,7 °C 5,0 °C 48 % 81 % 1004,8 hPa 0,0 l/m² 12,5 km/h (2 Bft) W 0,50 h 58 W/m² 2,0 °C 0,6 °C 17,4 km/h (3 Bft)
07.02.2024 15:00 20,7 °C 4,7 °C 48 % 80 % 1004,7 hPa 0,0 l/m² 6,9 km/h (2 Bft) W-SW 0,00 h 32 W/m² 1,6 °C 3,7 °C 10,0 km/h (2 Bft)
07.02.2024 16:00 20,7 °C 4,4 °C 48 % 82 % 1004,9 hPa 0,0 l/m² 5,9 km/h (2 Bft) W-SW 0,00 h 15 W/m² 1,6 °C 4,3 °C 8,2 km/h (2 Bft)
07.02.2024 17:00 20,7 °C 4,0 °C 48 % 84 % 1005,3 hPa 0,0 l/m² 4,5 km/h (1 Bft) SW 0,00 h 0 W/m² 1,7 °C 3,9 °C 6,5 km/h (2 Bft)
07.02.2024 18:00 20,8 °C 3,6 °C 48 % 87 % 1005,7 hPa 0,0 l/m² 3,3 km/h (1 Bft) SW 0,00 h 0 W/m² 1,7 °C 3,6 °C 5,6 km/h (2 Bft)
07.02.2024 19:00 20,7 °C 3,3 °C 48 % 89 % 1005,6 hPa 0,0 l/m² 0,6 km/h (0 Bft) SW 0,00 h 0 W/m² 1,6 °C 3,3 °C 1,7 km/h (1 Bft)
07.02.2024 20:00 20,7 °C 3,1 °C 48 % 90 % 1005,5 hPa 0,0 l/m² 2,4 km/h (1 Bft) SW 0,00 h 0 W/m² 1,6 °C 3,1 °C 4,1 km/h (1 Bft)
07.02.2024 21:00 20,8 °C 2,9 °C 48 % 90 % 1005,5 hPa 0,0 l/m² 1,0 km/h (0 Bft) SW 0,00 h 0 W/m² 1,4 °C 2,9 °C 2,3 km/h (1 Bft)
07.02.2024 22:00 20,8 °C 2,7 °C 48 % 91 % 1005,1 hPa 0,0 l/m² 0,6 km/h (0 Bft) SW 0,00 h 0 W/m² 1,3 °C 2,7 °C 1,4 km/h (1 Bft)
07.02.2024 23:00 20,7 °C 2,4 °C 48 % 91 % 1004,7 hPa 0,0 l/m² 0,0 km/h (0 Bft) SW 0,00 h 0 W/m² 1,1 °C 2,4 °C 0,1 km/h (0 Bft)
08.02.2024 00:00 20,7 °C 1,4 °C 48 % 91 % 1004,5 hPa 0,0 l/m² 0,1 km/h (0 Bft) SW 0,00 h 0 W/m² 0,1 °C 1,4 °C 0,2 km/h (0 Bft)
08.02.2024 01:00 20,8 °C 0,6 °C 48 % 91 % 1004,5 hPa 0,0 l/m² 0,2 km/h (0 Bft) SW 0,00 h 0 W/m² -0,7 °C 0,6 °C 0,8 km/h (0 Bft)
08.02.2024 02:00 20,8 °C 0,0 °C 48 % 92 % 1004,3 hPa 0,0 l/m² 0,1 km/h (0 Bft) SW 0,00 h 0 W/m² -1,1 °C 0,0 °C 0,3 km/h (0 Bft)
08.02.2024 03:00 20,8 °C -0,4 °C 48 % 92 % 1003,8 hPa 0,0 l/m² 0,0 km/h (0 Bft) SW 0,00 h 0 W/m² -1,4 °C -0,4 °C 0,0 km/h (0 Bft)
08.02.2024 04:00 20,9 °C -0,2 °C 48 % 93 % 1003,7 hPa 0,0 l/m² 0,0 km/h (0 Bft) SW 0,00 h 0 W/m² -1,2 °C -0,2 °C 0,1 km/h (0 Bft)
08.02.2024 05:00 20,9 °C -0,1 °C 48 % 93 % 1003,5 hPa 0,0 l/m² 0,0 km/h (0 Bft) SW 0,00 h 0 W/m² -1,1 °C -0,1 °C 0,0 km/h (0 Bft)
08.02.2024 06:00 20,9 °C 0,0 °C 48 % 93 % 1003,2 hPa 0,0 l/m² 0,2 km/h (0 Bft) SW 0,00 h 0 W/m² -1,0 °C 0,0 °C 0,6 km/h (0 Bft)
08.02.2024 07:00 21,1 °C -0,1 °C 48 % 94 % 1003,4 hPa 0,0 l/m² 1,0 km/h (0 Bft) SW 0,00 h 8 W/m² -1,0 °C -0,1 °C 1,5 km/h (1 Bft)
08.02.2024 08:00 21,1 °C 0,0 °C 47 % 94 % 1003,5 hPa 0,0 l/m² 0,0 km/h (0 Bft) SW 0,00 h 33 W/m² -0,8 °C 0,0 °C 0,1 km/h (0 Bft)
08.02.2024 09:00 21,1 °C 0,6 °C 47 % 94 % 1003,7 hPa 0,0 l/m² 0,0 km/h (0 Bft) SW 0,97 h 65 W/m² -0,2 °C 0,6 °C 0,1 km/h (0 Bft)
08.02.2024 10:00 21,1 °C 1,6 °C 47 % 94 % 1003,3 hPa 0,0 l/m² 0,0 km/h (0 Bft) SW 1,00 h 126 W/m² 0,8 °C 1,6 °C 0,1 km/h (0 Bft)
08.02.2024 11:00 21,1 °C 2,9 °C 47 % 93 % 1002,8 hPa 0,0 l/m² 0,7 km/h (0 Bft) SW 1,00 h 188 W/m² 1,9 °C 2,9 °C 1,5 km/h (1 Bft)
08.02.2024 12:00 21,1 °C 3,9 °C 48 % 88 % 1002,1 hPa 0,0 l/m² 2,9 km/h (1 Bft) SW 1,00 h 199 W/m² 2,1 °C 3,9 °C 5,0 km/h (1 Bft)
08.02.2024 13:00 21,0 °C 4,4 °C 47 % 85 % 1001,2 hPa 0,0 l/m² 4,4 km/h (1 Bft) O 1,00 h 152 W/m² 2,1 °C 4,3 °C 6,8 km/h (2 Bft)
08.02.2024 14:00 21,1 °C 4,6 °C 47 % 84 % 1000,5 hPa 0,0 l/m² 6,0 km/h (2 Bft) O 0,77 h 80 W/m² 2,1 °C 4,1 °C 8,1 km/h (2 Bft)
08.02.2024 15:00 21,1 °C 4,2 °C 47 % 86 % 1000,0 hPa 0,4 l/m² 5,6 km/h (2 Bft) O 0,00 h 24 W/m² 2,0 °C 4,0 °C 7,6 km/h (2 Bft)
08.02.2024 16:00 21,0 °C 3,5 °C 47 % 89 % 999,3 hPa 0,4 l/m² 5,1 km/h (1 Bft) O 0,00 h 10 W/m² 1,9 °C 3,1 °C 7,4 km/h (2 Bft)
08.02.2024 17:00 20,9 °C 3,0 °C 47 % 91 % 998,8 hPa 0,6 l/m² 6,8 km/h (2 Bft) O-NO 0,00 h 0 W/m² 1,6 °C 2,1 °C 10,3 km/h (2 Bft)
08.02.2024 18:00 20,9 °C 2,5 °C 47 % 92 % 998,3 hPa 0,6 l/m² 7,3 km/h (2 Bft) O-NO 0,00 h 0 W/m² 1,3 °C 1,1 °C 11,2 km/h (2 Bft)
08.02.2024 19:00 20,9 °C 1,9 °C 47 % 92 % 998,1 hPa 0,4 l/m² 6,2 km/h (2 Bft) O-NO 0,00 h 0 W/m² 0,8 °C 1,2 °C 10,5 km/h (2 Bft)
08.02.2024 20:00 20,9 °C 1,6 °C 47 % 93 % 997,1 hPa 0,6 l/m² 9,3 km/h (2 Bft) O-NO 0,00 h 0 W/m² 0,6 °C -1,0 °C 14,9 km/h (3 Bft)
08.02.2024 21:00 20,9 °C 1,8 °C 47 % 93 % 996,5 hPa 0,4 l/m² 10,2 km/h (2 Bft) O-NO 0,00 h 0 W/m² 0,8 °C -1,6 °C 15,2 km/h (3 Bft)
08.02.2024 22:00 20,9 °C 1,8 °C 47 % 94 % 996,1 hPa 0,4 l/m² 8,7 km/h (2 Bft) O-NO 0,00 h 0 W/m² 0,9 °C -0,5 °C 13,1 km/h (3 Bft)
08.02.2024 23:00 20,9 °C 1,8 °C 47 % 94 % 995,8 hPa 0,4 l/m² 4,8 km/h (1 Bft) O-NO 0,00 h 0 W/m² 1,0 °C 1,6 °C 8,0 km/h (2 Bft)
09.02.2024 00:00 20,9 °C 2,0 °C 47 % 94 % 995,3 hPa 0,0 l/m² 7,2 km/h (2 Bft) O-NO 0,00 h 0 W/m² 1,1 °C 1,0 °C 11,6 km/h (2 Bft)
09.02.2024 01:00 20,9 °C 2,2 °C 47 % 94 % 994,9 hPa 0,2 l/m² 7,9 km/h (2 Bft) O 0,00 h 0 W/m² 1,3 °C 0,5 °C 11,6 km/h (2 Bft)
09.02.2024 02:00 20,9 °C 2,4 °C 47 % 95 % 994,0 hPa 0,4 l/m² 7,9 km/h (2 Bft) O 0,00 h 0 W/m² 1,6 °C 0,9 °C 11,5 km/h (2 Bft)
09.02.2024 03:00 20,9 °C 2,7 °C 47 % 95 % 993,2 hPa 0,4 l/m² 6,1 km/h (2 Bft) O 0,00 h 0 W/m² 2,0 °C 2,4 °C 8,7 km/h (2 Bft)
09.02.2024 04:00 20,9 °C 2,9 °C 47 % 95 % 992,4 hPa 1,0 l/m² 5,5 km/h (2 Bft) O 0,00 h 0 W/m² 2,1 °C 2,8 °C 7,7 km/h (2 Bft)
09.02.2024 05:00 20,9 °C 3,1 °C 47 % 95 % 991,3 hPa 0,4 l/m² 5,1 km/h (1 Bft) O-NO 0,00 h 0 W/m² 2,4 °C 2,7 °C 7,7 km/h (2 Bft)
09.02.2024 06:00 20,8 °C 3,5 °C 47 % 95 % 990,5 hPa 0,4 l/m² 2,7 km/h (1 Bft) O 0,00 h 0 W/m² 2,8 °C 3,5 °C 4,6 km/h (1 Bft)
09.02.2024 07:00 20,9 °C 3,7 °C 47 % 95 % 990,3 hPa 0,0 l/m² 1,8 km/h (1 Bft) O 0,00 h 5 W/m² 3,0 °C 3,7 °C 3,6 km/h (1 Bft)
09.02.2024 08:00 20,9 °C 4,0 °C 47 % 95 % 990,3 hPa 0,2 l/m² 0,7 km/h (0 Bft) O 0,00 h 15 W/m² 3,3 °C 4,0 °C 1,9 km/h (1 Bft)
09.02.2024 09:00 20,9 °C 4,6 °C 47 % 96 % 990,2 hPa 0,0 l/m² 0,1 km/h (0 Bft) O 0,10 h 33 W/m² 4,0 °C 4,6 °C 0,3 km/h (0 Bft)
09.02.2024 10:00 20,9 °C 6,1 °C 47 % 96 % 989,9 hPa 0,0 l/m² 0,3 km/h (0 Bft) O 0,87 h 87 W/m² 5,5 °C 6,1 °C 1,0 km/h (0 Bft)
09.02.2024 11:00 20,9 °C 10,3 °C 47 % 93 % 989,9 hPa 0,0 l/m² 6,3 km/h (2 Bft) S-SO 1,00 h 250 W/m² 9,3 °C 9,4 °C 9,7 km/h (2 Bft)
09.02.2024 12:00 20,9 °C 12,3 °C 47 % 86 % 989,8 hPa 0,0 l/m² 10,1 km/h (2 Bft) S 1,00 h 273 W/m² 10,1 °C 10,2 °C 14,5 km/h (3 Bft)
09.02.2024 13:00 20,9 °C 12,8 °C 48 % 85 % 989,4 hPa 0,0 l/m² 13,0 km/h (3 Bft) S 1,02 h 285 W/m² 10,4 °C 9,6 °C 18,6 km/h (3 Bft)
09.02.2024 14:00 20,9 °C 13,1 °C 48 % 83 % 989,3 hPa 0,0 l/m² 14,7 km/h (3 Bft) S 1,00 h 162 W/m² 10,2 °C 9,1 °C 20,4 km/h (4 Bft)
09.02.2024 15:00 21,2 °C 12,9 °C 49 % 84 % 989,5 hPa 0,0 l/m² 8,5 km/h (2 Bft) S 0,60 h 72 W/m² 10,2 °C 11,6 °C 11,9 km/h (2 Bft)
09.02.2024 16:00 21,1 °C 12,4 °C 49 % 84 % 989,5 hPa 0,0 l/m² 6,3 km/h (2 Bft) S 0,00 h 17 W/m² 9,7 °C 11,7 °C 9,1 km/h (2 Bft)
09.02.2024 17:00 21,1 °C 11,9 °C 49 % 84 % 989,4 hPa 0,0 l/m² 5,8 km/h (2 Bft) S 0,00 h 0 W/m² 9,3 °C 11,4 °C 9,2 km/h (2 Bft)
09.02.2024 18:00 21,1 °C 11,4 °C 50 % 85 % 989,5 hPa 0,0 l/m² 8,7 km/h (2 Bft) S-SO 0,00 h 0 W/m² 8,9 °C 9,9 °C 13,0 km/h (3 Bft)
09.02.2024 19:00 21,2 °C 10,8 °C 54 % 86 % 989,7 hPa 0,0 l/m² 9,1 km/h (2 Bft) S-SO 0,00 h 0 W/m² 8,5 °C 9,1 °C 12,8 km/h (3 Bft)
09.02.2024 20:00 21,3 °C 10,5 °C 53 % 86 % 989,9 hPa 0,0 l/m² 3,1 km/h (1 Bft) S 0,00 h 0 W/m² 8,3 °C 10,1 °C 4,8 km/h (1 Bft)
09.02.2024 21:00 21,5 °C 10,1 °C 52 % 87 % 990,1 hPa 0,0 l/m² 2,4 km/h (1 Bft) S 0,00 h 0 W/m² 8,1 °C 9,8 °C 3,8 km/h (1 Bft)
09.02.2024 22:00 21,5 °C 9,7 °C 52 % 88 % 990,2 hPa 0,0 l/m² 0,3 km/h (0 Bft) S 0,00 h 0 W/m² 7,8 °C 9,7 °C 0,6 km/h (0 Bft)
09.02.2024 23:00 21,3 °C 9,0 °C 53 % 90 % 990,0 hPa 0,0 l/m² 0,9 km/h (0 Bft) S 0,00 h 0 W/m² 7,4 °C 9,0 °C 2,1 km/h (1 Bft)
10.02.2024 00:00 21,2 °C 9,3 °C 54 % 91 % 990,1 hPa 0,0 l/m² 3,5 km/h (1 Bft) S 0,00 h 0 W/m² 8,0 °C 9,3 °C 5,9 km/h (2 Bft)
10.02.2024 01:00 21,2 °C 9,5 °C 55 % 91 % 990,1 hPa 0,2 l/m² 0,2 km/h (0 Bft) S 0,00 h 0 W/m² 8,1 °C 9,5 °C 0,6 km/h (0 Bft)
10.02.2024 02:00 21,2 °C 9,3 °C 55 % 92 % 990,2 hPa 0,2 l/m² 1,2 km/h (1 Bft) S 0,00 h 0 W/m² 8,1 °C 9,3 °C 2,9 km/h (1 Bft)
10.02.2024 03:00 21,2 °C 9,3 °C 55 % 93 % 990,0 hPa 0,2 l/m² 4,6 km/h (1 Bft) S 0,00 h 0 W/m² 8,2 °C 9,2 °C 7,3 km/h (2 Bft)
10.02.2024 04:00 21,1 °C 9,1 °C 55 % 93 % 989,7 hPa 0,2 l/m² 1,0 km/h (0 Bft) S-SO 0,00 h 0 W/m² 8,0 °C 9,1 °C 2,0 km/h (1 Bft)
10.02.2024 05:00 21,1 °C 8,8 °C 55 % 93 % 989,6 hPa 0,0 l/m² 0,9 km/h (0 Bft) S-SO 0,00 h 0 W/m² 7,7 °C 8,8 °C 2,2 km/h (1 Bft)
10.02.2024 06:00 21,0 °C 8,7 °C 55 % 94 % 989,6 hPa 0,0 l/m² 0,0 km/h (0 Bft) S-SO 0,00 h 0 W/m² 7,7 °C 8,7 °C 0,0 km/h (0 Bft)
10.02.2024 07:00 20,9 °C 8,0 °C 55 % 93 % 989,9 hPa 0,0 l/m² 0,0 km/h (0 Bft) S-SO 0,00 h 9 W/m² 7,0 °C 8,0 °C 0,1 km/h (0 Bft)
10.02.2024 08:00 21,1 °C 8,0 °C 55 % 94 % 990,5 hPa 0,0 l/m² 0,0 km/h (0 Bft) S-SO 0,10 h 32 W/m² 7,1 °C 8,0 °C 0,0 km/h (0 Bft)
10.02.2024 09:00 21,4 °C 9,2 °C 54 % 94 % 990,9 hPa 0,0 l/m² 0,2 km/h (0 Bft) S-SO 0,95 h 180 W/m² 8,3 °C 9,2 °C 0,3 km/h (0 Bft)
10.02.2024 10:00 21,9 °C 10,6 °C 52 % 91 % 991,2 hPa 0,0 l/m² 0,0 km/h (0 Bft) S-SO 1,00 h 277 W/m² 9,2 °C 10,6 °C 0,0 km/h (0 Bft)
10.02.2024 11:00 22,3 °C 11,8 °C 52 % 87 % 991,2 hPa 0,0 l/m² 0,7 km/h (0 Bft) S-SO 1,00 h 384 W/m² 9,8 °C 11,8 °C 1,3 km/h (1 Bft)
10.02.2024 12:00 22,6 °C 13,5 °C 51 % 81 % 990,5 hPa 0,0 l/m² 2,3 km/h (1 Bft) S-SO 1,00 h 384 W/m² 10,3 °C 13,5 °C 3,7 km/h (1 Bft)
10.02.2024 13:00 22,3 °C 14,1 °C 52 % 79 % 990,1 hPa 0,0 l/m² 4,6 km/h (1 Bft) S-SO 1,00 h 329 W/m² 10,6 °C 14,0 °C 6,6 km/h (2 Bft)
10.02.2024 14:00 22,2 °C 13,8 °C 52 % 79 % 989,6 hPa 0,0 l/m² 6,7 km/h (2 Bft) O-NO 1,00 h 163 W/m² 10,3 °C 13,3 °C 9,8 km/h (2 Bft)
10.02.2024 15:00 22,0 °C 13,2 °C 52 % 82 % 989,7 hPa 0,0 l/m² 4,9 km/h (1 Bft) O-NO 1,00 h 112 W/m² 10,1 °C 13,1 °C 6,9 km/h (2 Bft)
10.02.2024 16:00 21,9 °C 12,6 °C 52 % 83 % 989,7 hPa 0,0 l/m² 3,0 km/h (1 Bft) O-NO 0,35 h 42 W/m² 9,8 °C 12,6 °C 5,2 km/h (1 Bft)
10.02.2024 17:00 21,8 °C 10,9 °C 52 % 87 % 989,4 hPa 0,0 l/m² 2,7 km/h (1 Bft) NO 0,00 h 8 W/m² 8,8 °C 10,9 °C 5,1 km/h (1 Bft)
10.02.2024 18:00 21,7 °C 9,4 °C 51 % 91 % 989,6 hPa 0,0 l/m² 0,3 km/h (0 Bft) NO 0,00 h 0 W/m² 7,9 °C 9,4 °C 0,9 km/h (0 Bft)
10.02.2024 19:00 21,6 °C 9,7 °C 52 % 91 % 989,7 hPa 0,0 l/m² 4,3 km/h (1 Bft) O-NO 0,00 h 0 W/m² 8,3 °C 9,6 °C 7,2 km/h (2 Bft)
10.02.2024 20:00 21,4 °C 9,2 °C 52 % 91 % 989,7 hPa 0,0 l/m² 4,4 km/h (1 Bft) O-NO 0,00 h 0 W/m² 7,8 °C 9,1 °C 6,8 km/h (2 Bft)
10.02.2024 21:00 21,4 °C 8,9 °C 52 % 91 % 989,5 hPa 0,0 l/m² 1,6 km/h (1 Bft) O-NO 0,00 h 0 W/m² 7,5 °C 8,9 °C 3,2 km/h (1 Bft)
10.02.2024 22:00 21,4 °C 8,8 °C 52 % 91 % 989,1 hPa 0,0 l/m² 5,0 km/h (1 Bft) O-NO 0,00 h 0 W/m² 7,5 °C 8,6 °C 8,2 km/h (2 Bft)
10.02.2024 23:00 21,4 °C 8,5 °C 52 % 92 % 988,9 hPa 0,0 l/m² 1,0 km/h (0 Bft) O-NO 0,00 h 0 W/m² 7,3 °C 8,5 °C 1,9 km/h (1 Bft)
11.02.2024 00:00 21,3 °C 7,7 °C 52 % 93 % 988,8 hPa 0,0 l/m² 0,5 km/h (0 Bft) O-NO 0,00 h 0 W/m² 6,6 °C 7,7 °C 1,4 km/h (1 Bft)
11.02.2024 01:00 21,3 °C 7,7 °C 52 % 94 % 988,4 hPa 0,0 l/m² 0,1 km/h (0 Bft) O-NO 0,00 h 0 W/m² 6,8 °C 7,7 °C 0,6 km/h (0 Bft)
11.02.2024 02:00 21,3 °C 8,1 °C 52 % 94 % 988,4 hPa 0,0 l/m² 0,8 km/h (0 Bft) O-NO 0,00 h 0 W/m² 7,2 °C 8,1 °C 2,8 km/h (1 Bft)
11.02.2024 03:00 21,3 °C 8,4 °C 52 % 93 % 988,1 hPa 0,0 l/m² 2,3 km/h (1 Bft) O-NO 0,00 h 0 W/m² 7,4 °C 8,4 °C 5,1 km/h (1 Bft)
11.02.2024 04:00 21,3 °C 7,7 °C 52 % 93 % 988,1 hPa 0,0 l/m² 0,5 km/h (0 Bft) O-NO 0,00 h 0 W/m² 6,6 °C 7,7 °C 1,5 km/h (1 Bft)
11.02.2024 05:00 21,3 °C 7,3 °C 52 % 94 % 988,0 hPa 0,0 l/m² 0,4 km/h (0 Bft) O-NO 0,00 h 0 W/m² 6,4 °C 7,3 °C 1,1 km/h (1 Bft)
11.02.2024 06:00 21,2 °C 7,3 °C 52 % 95 % 988,1 hPa 0,0 l/m² 0,0 km/h (0 Bft) O-NO 0,00 h 0 W/m² 6,5 °C 7,3 °C 0,1 km/h (0 Bft)
11.02.2024 07:00 21,3 °C 7,9 °C 52 % 95 % 988,5 hPa 0,0 l/m² 0,1 km/h (0 Bft) O-NO 0,00 h 0 W/m² 7,1 °C 7,9 °C 0,4 km/h (0 Bft)
11.02.2024 08:00 21,3 °C 8,1 °C 52 % 95 % 989,0 hPa 0,0 l/m² 0,1 km/h (0 Bft) O-NO 0,00 h 10 W/m² 7,3 °C 8,1 °C 0,6 km/h (0 Bft)
11.02.2024 09:00 21,4 °C 8,4 °C 54 % 95 % 989,5 hPa 0,0 l/m² 0,1 km/h (0 Bft) O-NO 0,00 h 26 W/m² 7,7 °C 8,4 °C 0,5 km/h (0 Bft)
11.02.2024 10:00 21,4 °C 8,8 °C 53 % 94 % 989,8 hPa 0,0 l/m² 0,0 km/h (0 Bft) O-NO 0,50 h 53 W/m² 7,9 °C 8,8 °C 0,1 km/h (0 Bft)
11.02.2024 11:00 21,2 °C 9,0 °C 51 % 93 % 989,9 hPa 0,0 l/m² 0,1 km/h (0 Bft) O-NO 0,33 h 41 W/m² 7,9 °C 9,0 °C 0,7 km/h (0 Bft)
11.02.2024 12:00 21,1 °C 9,2 °C 51 % 93 % 990,1 hPa 0,0 l/m² 0,1 km/h (0 Bft) O-NO 0,40 h 51 W/m² 8,1 °C 9,2 °C 0,6 km/h (0 Bft)
11.02.2024 13:00 21,2 °C 9,2 °C 53 % 93 % 990,3 hPa 0,0 l/m² 2,3 km/h (1 Bft) W-NW 0,67 h 63 W/m² 8,1 °C 9,2 °C 4,8 km/h (1 Bft)
11.02.2024 14:00 21,3 °C 9,3 °C 53 % 93 % 990,4 hPa 0,0 l/m² 3,8 km/h (1 Bft) W 0,95 h 67 W/m² 8,2 °C 9,0 °C 7,2 km/h (2 Bft)
11.02.2024 15:00 21,3 °C 9,3 °C 53 % 92 % 990,7 hPa 0,0 l/m² 4,6 km/h (1 Bft) W-NW 0,00 h 30 W/m² 8,1 °C 9,0 °C 8,3 km/h (2 Bft)
11.02.2024 16:00 21,4 °C 9,2 °C 53 % 93 % 991,2 hPa 0,0 l/m² 0,7 km/h (0 Bft) W-NW 0,00 h 8 W/m² 8,1 °C 9,2 °C 2,0 km/h (1 Bft)
11.02.2024 17:00 21,3 °C 9,0 °C 54 % 93 % 991,6 hPa 0,8 l/m² 0,0 km/h (0 Bft) W-NW 0,00 h 0 W/m² 7,9 °C 9,0 °C 0,0 km/h (0 Bft)
11.02.2024 18:00 21,2 °C 8,7 °C 55 % 94 % 992,4 hPa 2,0 l/m² 7,6 km/h (2 Bft) W-SW 0,00 h 0 W/m² 7,8 °C 6,6 °C 10,7 km/h (2 Bft)
11.02.2024 19:00 21,3 °C 8,3 °C 57 % 94 % 993,4 hPa 0,8 l/m² 11,7 km/h (2 Bft) W-SW 0,00 h 0 W/m² 7,4 °C 4,8 °C 16,0 km/h (3 Bft)
11.02.2024 20:00 21,3 °C 7,9 °C 58 % 94 % 994,1 hPa 0,6 l/m² 10,1 km/h (2 Bft) W-SW 0,00 h 0 W/m² 7,0 °C 5,3 °C 14,6 km/h (3 Bft)
11.02.2024 21:00 21,5 °C 7,8 °C 58 % 94 % 994,7 hPa 0,2 l/m² 8,4 km/h (2 Bft) W-SW 0,00 h 0 W/m² 6,9 °C 6,3 °C 12,3 km/h (2 Bft)
11.02.2024 22:00 21,6 °C 7,8 °C 58 % 94 % 995,2 hPa 0,0 l/m² 6,3 km/h (2 Bft) SW 0,00 h 0 W/m² 6,9 °C 7,4 °C 9,4 km/h (2 Bft)
11.02.2024 23:00 21,4 °C 7,7 °C 58 % 94 % 995,6 hPa 0,0 l/m² 7,7 km/h (2 Bft) SW 0,00 h 0 W/m² 6,8 °C 6,6 °C 10,7 km/h (2 Bft)
Min-Datum _ 07.02.24 08.02.24 09.02.24 05.02.24 11.02.24 - 11.02.24 - - - 08.02.24 08.02.24 11.02.24
_ Min-Zeit 06:05 04:02 12:00 15:04 05:07 - 18:00 - - - 03:22 21:29 18:00
Minimum _ 20,4 °C -0,4 °C 47 % 69 % 987,9 hPa - 0,0 km/h (0 Bft) - - - -1,5 °C -6,2 °C 0,0 km/h (0 Bft)
Max-Datum _ 10.02.24 10.02.24 11.02.24 09.02.24 05.02.24 07.02.24 07.02.24 - 07.02.24 05.02.24 10.02.24 10.02.24 07.02.24
_ Max-Zeit 12:05 13:20 21:00 11:01 11:13 05:27 00:50 - 12:02 13:27 14:02 13:20 00:50
Maximum _ 22,7 °C 14,6 °C 59 % 97 % 1015,4 hPa 3,8 l/m² 47,2 km/h
SW (6 Bft)
- 0,05 h 459 W/m² 11,1 °C 14,6 °C 64,4 km/h
SW (8 Bft)
Durchschnitt _ 21,0 °C 7,6 °C 50 % 88 % 999,7 hPa #22,6 l/m² 10,9 km/h (2 Bft) SW #38:43 h 43 W/m² 5,7 °C 4,6 °C 15,2 km/h (3 Bft)
© 2009 Mathias Hoßbach